{"data":{"norad_id":69082,"intl_designator":"2026-104K","name":"QIANFAN-136","alt_names":[],"object_type":"PAYLOAD","status":"ACTIVE","operator":null,"country":"PRC","launch_date":"2026-05-12","launch_site_code":"TAISC","launch_vehicle":null,"mission":null,"orbit_class":"UNKNOWN","rcs_meters":null,"size_class":null,"mass_kg":null,"dimensions":null,"purposes":[],"wikipedia_slug":null,"has_3d_model":false,"image_url":null,"decayed_at":null,"tle_current":{"epoch":"2026-09-20T04:34:37.456320Z","epoch_age_seconds":49996,"freshness":"FRESH","line1":"1 69082U 26104K   26263.19071130  .00000068  00000+0  87152-4 0  9999","line2":"2 69082  88.9904 331.7971 0002074 113.0523 247.0847 13.51032315 17974","mean_motion":13.51032315,"eccentricity":0.0002074,"inclination_deg":88.9904,"raan_deg":331.7971,"arg_perigee_deg":113.0523,"mean_anomaly_deg":247.0847,"bstar":8.7152e-5,"rev_number":1797,"period_min":106.5851633608,"perigee_km":1066.9184158468,"apogee_km":1070.0072654607,"semimajor_km":7446.5998406537,"source":"CELESTRAK","updated_at":"2026-09-20T09:00:24.671532Z"}}}